TimeHST,TemperatureF,Dew PointF,Humidity,Sea Level PressureIn,VisibilityMPH,Wind Direction,Wind SpeedMPH,Gust SpeedMPH,PrecipitationIn,Events,Conditions,WindDirDegrees,DateUTC
6:55 AM,61.9,60.1,94,29.94,10.0,NNW,4.6,-,N/A,,Clear,340,2013-01-29 16:55:00
7:55 AM,62.4,60.8,94,29.96,10.0,NW,4.6,-,N/A,,Clear,310,2013-01-29 17:55:00
8:55 AM,66.7,63.9,90,29.97,10.0,NNW,4.6,-,N/A,,Clear,340,2013-01-29 18:55:00
9:55 AM,70.0,64.0,81,29.98,10.0,NNW,5.8,-,N/A,,Mostly Cloudy,330,2013-01-29 19:55:00
10:55 AM,73.0,63.9,73,29.97,10.0,NNW,6.9,-,N/A,,Clear,340,2013-01-29 20:55:00
11:29 AM,73.4,62.6,69,29.96,10.0,NNW,6.9,-,N/A,,Mostly Cloudy,340,2013-01-29 21:29:00
11:39 AM,73.4,64.4,73,29.95,10.0,NNW,9.2,-,N/A,,Mostly Cloudy,330,2013-01-29 21:39:00
11:48 AM,75.2,64.4,69,29.95,10.0,North,9.2,-,N/A,,Mostly Cloudy,350,2013-01-29 21:48:00
11:55 AM,73.6,64.6,73,29.95,10.0,North,8.1,-,N/A,,Mostly Cloudy,350,2013-01-29 21:55:00
12:01 PM,73.4,64.4,73,29.95,10.0,North,9.2,-,N/A,,Scattered Clouds,350,2013-01-29 22:01:00
12:08 PM,73.4,64.4,73,29.95,10.0,North,9.2,-,N/A,,Mostly Cloudy,360,2013-01-29 22:08:00
12:15 PM,73.4,64.4,73,29.94,10.0,NW,8.1,-,N/A,,Mostly Cloudy,320,2013-01-29 22:15:00
12:55 PM,75.2,64.2,69,29.93,10.0,NW,13.8,-,N/A,,Clear,320,2013-01-29 22:55:00
1:55 PM,74.8,64.4,70,29.91,10.0,NW,11.5,-,N/A,,Clear,320,2013-01-29 23:55:00
2:55 PM,73.6,63.0,69,29.91,10.0,North,8.1,-,N/A,,Mostly Cloudy,360,2013-01-30 00:55:00
2:56 PM,73.4,62.6,69,29.91,10.0,North,8.1,-,N/A,,Mostly Cloudy,350,2013-01-30 00:56:00
3:55 PM,73.0,63.7,72,29.91,10.0,NNE,9.2,-,N/A,,Overcast,20,2013-01-30 01:55:00
4:03 PM,71.6,62.6,73,29.92,10.0,NNE,5.8,-,N/A,,Light Drizzle,30,2013-01-30 02:03:00
4:29 PM,71.6,64.4,78,29.93,10.0,North,6.9,-,N/A,Rain,Light Rain,360,2013-01-30 02:29:00
4:50 PM,71.6,64.4,78,29.93,10.0,North,6.9,-,N/A,,Mostly Cloudy,10,2013-01-30 02:50:00
4:55 PM,71.1,64.8,80,29.93,10.0,North,4.6,-,0.01,,Mostly Cloudy,350,2013-01-30 02:55:00
5:03 PM,71.6,64.4,78,29.94,10.0,North,5.8,-,N/A,,Mostly Cloudy,360,2013-01-30 03:03:00
5:19 PM,71.6,64.4,78,29.94,10.0,NNW,6.9,-,N/A,,Mostly Cloudy,330,2013-01-30 03:19:00
5:55 PM,69.4,64.2,83,29.95,10.0,NW,4.6,-,N/A,,Clear,320,2013-01-30 03:55:00
6:55 PM,68.5,64.4,87,29.97,10.0,NW,5.8,-,N/A,,Overcast,310,2013-01-30 04:55:00
7:55 PM,64.9,59.5,83,29.99,10.0,NW,4.6,-,N/A,,Clear,310,2013-01-30 05:55:00
8:55 PM,65.7,61.3,86,30.00,10.0,NNW,3.5,-,N/A,,Clear,330,2013-01-30 06:55:00
9:55 PM,64.9,61.5,89,30.01,10.0,NNW,4.6,-,N/A,,Clear,340,2013-01-30 07:55:00
10:55 PM,63.1,60.6,91,30.01,10.0,Calm,Calm,-,N/A,,Clear,0,2013-01-30 08:55:00
11:55 PM,62.2,59.5,91,30.01,10.0,NNW,4.6,-,N/A,,Clear,330,2013-01-30 09:55:00